Location: *
(46.0770°N, 1.6444°E)
Time: 15:13:03
(UTC+00:00)

COSMOS 2455 - Pass Details

Date: 16 September 2019
Orbit: 900 x 910 km, 67.1° (Epoch: 14 October)

Event Time Altitude Azimuth Distance (km) Brightness Sun altitude
Rises 19:50:59 0° 320° (NW) 3,547 7.1 -18.8°
Reaches altitude 10° 19:53:43 10° 311° (NW) 2,601 6.4 -19.2°
Maximum altitude 19:59:01 33° 250° (WSW) 1,480 4.3 -20.0°
Drops below altitude 10° 20:04:17 10° 188° (S) 2,581 5.0 -20.9°
Enters shadow 20:05:25 - 184° (S) 2,964 5.3 -21.0°
